STARLINK-4515 (53397 NORAD) Tracking and Keplerian Element Data

This shows tracking and keplerian element data for the satellite.

Feedback or suggestion? Click here.




ElementValue
Catalog53397
NameSTARLINK-4515
Epoch Orbit130
Epoch Day269.91667824
Epoch Year2022
RAAN19.4607
Inclination53.2181
Eccentricity0.0001793
Argument of Perigee48.034
Mean Anonmoly163.7023
Mean Motion15.08828698
Decay Rate0.00024798
L11 53397U 22097K 22269.91667824 .00024798 00000+0 15712-2 0 9998
L22 53397 53.2181 19.4607 0001793 48.0340 163.7023 15.08828698 1306

Live tracking and technical data element details for STARLINK-4515 (NORAD 53397). STARLINK-4515 can be tracked NOW for your location showing map with azimuth and elevation plus other details from your city location.

Track the satellite on the map from your city or location and see movement details for azimuth, elevation, latitude, longitude, range, height, and movement on the map or in text.







IsCatalogInMostPopularTable: catalog: 53397, numindb: 4
Update: records affected: 1



GetName: 53397 STARLINK-4515

Hit Count: updated at: Wed, 28 Sep 2022 23:24:59 GMT